Time,TemperatureF,DewpointF,PressureIn,WindDirection,WindDirectionDegrees,WindSpeedMPH,WindSpeedGustMPH,Humidity,HourlyPrecipIn,Conditions,Clouds,dailyrainin,SoftwareType,DateUTC
2013-04-02 00:00:00,27.1,18.0,29.96,WNW,292,4.0,18.0,68,0.00,,,0.02,meteohub,2013-04-02 04:00:00,
2013-04-02 00:05:00,27.0,18.1,29.96,WNW,285,4.0,12.0,69,0.00,,,0.00,meteohub,2013-04-02 04:05:00,
2013-04-02 00:10:00,27.0,18.5,29.96,WNW,294,11.0,12.0,70,0.00,,,0.00,meteohub,2013-04-02 04:10:00,
2013-04-02 00:16:00,27.0,18.5,29.96,West,281,8.0,15.0,70,0.00,,,0.00,meteohub,2013-04-02 04:16:00,
2013-04-02 00:21:00,27.0,18.1,29.96,West,275,2.0,16.0,69,0.00,,,0.00,meteohub,2013-04-02 04:21:00,
2013-04-02 00:26:00,27.0,17.8,29.97,West,265,5.0,16.0,68,0.00,,,0.00,meteohub,2013-04-02 04:26:00,
2013-04-02 00:31:00,26.8,18.0,29.97,West,280,11.0,16.0,69,0.00,,,0.00,meteohub,2013-04-02 04:31:00,
2013-04-02 00:36:00,26.8,18.3,29.97,WSW,256,7.0,15.0,70,0.00,,,0.00,meteohub,2013-04-02 04:36:00,
2013-04-02 00:41:00,26.4,18.0,29.97,West,275,5.0,15.0,70,0.00,,,0.00,meteohub,2013-04-02 04:41:00,
2013-04-02 00:47:00,26.2,18.1,29.97,West,276,8.0,15.0,71,0.00,,,0.00,meteohub,2013-04-02 04:47:00,
2013-04-02 00:52:00,26.2,18.1,29.97,West,269,8.0,16.0,71,0.00,,,0.00,meteohub,2013-04-02 04:52:00,
2013-04-02 00:57:00,26.1,18.0,29.97,WSW,252,7.0,16.0,71,0.00,,,0.00,meteohub,2013-04-02 04:57:00,
2013-04-02 01:02:00,26.1,18.0,29.97,West,274,5.0,20.0,71,0.00,,,0.00,meteohub,2013-04-02 05:02:00,
2013-04-02 01:07:00,26.1,17.6,29.97,West,270,8.0,20.0,70,0.00,,,0.00,meteohub,2013-04-02 05:07:00,
2013-04-02 01:12:00,26.1,17.6,29.97,WNW,283,13.0,20.0,70,0.00,,,0.00,meteohub,2013-04-02 05:12:00,
2013-04-02 01:17:00,25.9,17.4,29.98,West,273,7.0,18.0,70,0.00,,,0.00,meteohub,2013-04-02 05:17:00,
2013-04-02 01:22:00,25.7,17.6,29.98,West,262,10.0,16.0,71,0.00,,,0.00,meteohub,2013-04-02 05:22:00,
2013-04-02 01:27:00,25.5,17.4,29.98,SW,230,13.0,18.0,71,0.00,,,0.00,meteohub,2013-04-02 05:27:00,
2013-04-02 01:32:00,25.5,17.4,29.98,West,265,12.0,18.0,71,0.00,,,0.00,meteohub,2013-04-02 05:32:00,
2013-04-02 01:37:00,25.5,17.4,29.97,WSW,249,5.0,18.0,71,0.00,,,0.00,meteohub,2013-04-02 05:37:00,
2013-04-02 01:42:00,25.3,17.2,29.98,WNW,286,9.0,18.0,71,0.00,,,0.00,meteohub,2013-04-02 05:42:00,
2013-04-02 01:47:00,25.3,17.2,29.98,West,279,9.0,18.0,71,0.00,,,0.00,meteohub,2013-04-02 05:47:00,
2013-04-02 01:52:00,25.3,17.2,29.98,WNW,285,6.0,18.0,71,0.00,,,0.00,meteohub,2013-04-02 05:52:00,
2013-04-02 01:57:00,25.3,17.2,29.98,West,279,6.0,15.0,71,0.00,,,0.00,meteohub,2013-04-02 05:57:00,
2013-04-02 02:03:00,25.2,17.1,29.98,WNW,286,8.0,15.0,71,0.00,,,0.00,meteohub,2013-04-02 06:03:00,
2013-04-02 02:08:00,25.2,17.1,29.98,WNW,291,6.0,15.0,71,0.00,,,0.00,meteohub,2013-04-02 06:08:00,
2013-04-02 02:13:00,25.0,17.2,29.97,West,269,6.0,15.0,72,0.00,,,0.00,meteohub,2013-04-02 06:13:00,
2013-04-02 02:18:00,25.0,17.2,29.97,West,279,8.0,14.0,72,0.00,,,0.00,meteohub,2013-04-02 06:18:00,
2013-04-02 02:23:00,25.0,17.2,29.97,West,281,12.0,14.0,72,0.00,,,0.00,meteohub,2013-04-02 06:23:00,
2013-04-02 02:28:00,25.0,17.2,29.97,West,274,6.0,15.0,72,0.00,,,0.00,meteohub,2013-04-02 06:28:00,
2013-04-02 02:33:00,25.0,17.2,29.97,WNW,298,7.0,15.0,72,0.00,,,0.00,meteohub,2013-04-02 06:33:00,
2013-04-02 02:38:00,25.0,17.2,29.97,WSW,251,11.0,15.0,72,0.00,,,0.00,meteohub,2013-04-02 06:38:00,
2013-04-02 02:43:00,25.0,17.2,29.97,WNW,284,11.0,21.0,72,0.00,,,0.00,meteohub,2013-04-02 06:43:00,
2013-04-02 02:48:00,24.8,17.1,29.97,WNW,292,11.0,21.0,72,0.00,,,0.00,meteohub,2013-04-02 06:48:00,
2013-04-02 02:53:00,24.6,16.9,29.97,WNW,282,9.0,21.0,72,0.00,,,0.00,meteohub,2013-04-02 06:53:00,
2013-04-02 02:58:00,24.4,16.7,29.97,West,279,7.0,19.0,72,0.00,,,0.00,meteohub,2013-04-02 06:58:00,
2013-04-02 03:03:00,24.4,16.7,29.97,WNW,286,8.0,16.0,72,0.00,,,0.00,meteohub,2013-04-02 07:03:00,
2013-04-02 03:08:00,24.4,16.7,29.97,WNW,290,9.0,14.0,72,0.00,,,0.00,meteohub,2013-04-02 07:08:00,
2013-04-02 03:13:00,24.4,16.7,29.97,West,275,6.0,15.0,72,0.00,,,0.00,meteohub,2013-04-02 07:13:00,
2013-04-02 03:18:00,24.3,16.9,29.97,WSW,257,2.0,15.0,73,0.00,,,0.00,meteohub,2013-04-02 07:18:00,
2013-04-02 03:23:00,24.3,16.9,29.97,West,265,7.0,15.0,73,0.00,,,0.00,meteohub,2013-04-02 07:23:00,
2013-04-02 03:28:00,24.3,16.9,29.97,WSW,254,7.0,13.0,73,0.00,,,0.00,meteohub,2013-04-02 07:28:00,
2013-04-02 03:33:00,24.3,16.9,29.97,West,279,6.0,15.0,73,0.00,,,0.00,meteohub,2013-04-02 07:33:00,
2013-04-02 03:38:00,24.3,16.9,29.97,West,263,6.0,20.0,73,0.00,,,0.00,meteohub,2013-04-02 07:38:00,
2013-04-02 03:43:00,24.1,16.7,29.97,WNW,292,9.0,20.0,73,0.00,,,0.00,meteohub,2013-04-02 07:43:00,
2013-04-02 03:48:00,24.1,16.7,29.97,West,272,7.0,20.0,73,0.00,,,0.00,meteohub,2013-04-02 07:48:00,
2013-04-02 03:53:00,24.1,16.7,29.97,West,267,8.0,15.0,73,0.00,,,0.00,meteohub,2013-04-02 07:53:00,
2013-04-02 03:58:00,23.9,16.5,29.97,West,270,9.0,15.0,73,0.00,,,0.00,meteohub,2013-04-02 07:58:00,
2013-04-02 04:03:00,23.9,16.9,29.97,WNW,284,12.0,15.0,74,0.00,,,0.00,meteohub,2013-04-02 08:03:00,
2013-04-02 04:08:00,23.9,16.9,29.97,West,279,13.0,15.0,74,0.00,,,0.00,meteohub,2013-04-02 08:08:00,
2013-04-02 04:14:00,23.9,16.5,29.97,WNW,296,4.0,18.0,73,0.00,,,0.00,meteohub,2013-04-02 08:14:00,
2013-04-02 04:19:00,23.7,16.3,29.97,WNW,292,8.0,18.0,73,0.00,,,0.00,meteohub,2013-04-02 08:19:00,
2013-04-02 04:24:00,23.9,16.5,29.97,West,273,12.0,18.0,73,0.00,,,0.00,meteohub,2013-04-02 08:24:00,
2013-04-02 04:29:00,24.1,16.7,29.97,WNW,287,14.0,19.0,73,0.00,,,0.00,meteohub,2013-04-02 08:29:00,
2013-04-02 04:34:00,24.1,16.3,29.97,West,281,2.0,20.0,72,0.00,,,0.00,meteohub,2013-04-02 08:34:00,
2013-04-02 04:39:00,23.9,16.2,29.98,WNW,288,13.0,20.0,72,0.00,,,0.00,meteohub,2013-04-02 08:39:00,
2013-04-02 04:44:00,24.1,16.3,29.98,WSW,254,12.0,20.0,72,0.00,,,0.00,meteohub,2013-04-02 08:44:00,
2013-04-02 04:49:00,24.1,16.3,29.98,West,267,6.0,15.0,72,0.00,,,0.00,meteohub,2013-04-02 08:49:00,
2013-04-02 04:54:00,24.1,16.3,29.98,SW,231,8.0,15.0,72,0.00,,,0.00,meteohub,2013-04-02 08:54:00,
2013-04-02 04:59:00,24.1,16.3,29.98,SW,232,4.0,16.0,72,0.00,,,0.00,meteohub,2013-04-02 08:59:00,
2013-04-02 05:04:00,24.1,16.3,29.98,West,281,8.0,16.0,72,0.00,,,0.00,meteohub,2013-04-02 09:04:00,
2013-04-02 05:09:00,23.9,16.5,29.98,SW,233,11.0,16.0,73,0.00,,,0.00,meteohub,2013-04-02 09:09:00,
2013-04-02 05:14:00,23.9,16.2,29.98,West,280,9.0,15.0,72,0.00,,,0.00,meteohub,2013-04-02 09:14:00,
2013-04-02 05:19:00,23.9,16.5,29.98,West,269,7.0,15.0,73,0.00,,,0.00,meteohub,2013-04-02 09:19:00,
2013-04-02 05:24:00,23.9,16.5,29.98,WSW,257,1.0,16.0,73,0.00,,,0.00,meteohub,2013-04-02 09:24:00,
2013-04-02 05:29:00,23.7,16.3,29.98,West,259,3.0,16.0,73,0.00,,,0.00,meteohub,2013-04-02 09:29:00,
2013-04-02 05:34:00,23.7,16.3,29.98,West,273,9.0,16.0,73,0.00,,,0.00,meteohub,2013-04-02 09:34:00,
2013-04-02 05:39:00,23.7,16.3,29.98,WSW,242,6.0,14.0,73,0.00,,,0.00,meteohub,2013-04-02 09:39:00,
2013-04-02 05:44:00,23.7,16.3,29.98,West,273,5.0,15.0,73,0.00,,,0.00,meteohub,2013-04-02 09:44:00,
2013-04-02 05:49:00,23.7,16.3,29.99,WSW,254,7.0,15.0,73,0.00,,,0.00,meteohub,2013-04-02 09:49:00,
2013-04-02 05:54:00,23.7,16.3,29.98,West,278,11.0,15.0,73,0.00,,,0.00,meteohub,2013-04-02 09:54:00,
2013-04-02 05:59:00,23.7,16.3,29.99,WNW,283,12.0,15.0,73,0.00,,,0.00,meteohub,2013-04-02 09:59:00,
2013-04-02 06:04:00,23.7,16.3,29.99,WNW,289,5.0,16.0,73,0.00,,,0.00,meteohub,2013-04-02 10:04:00,
2013-04-02 06:10:00,23.7,16.3,29.99,West,268,14.0,16.0,73,0.00,,,0.00,meteohub,2013-04-02 10:10:00,
2013-04-02 06:15:00,23.7,16.3,29.99,WNW,282,15.0,16.0,73,0.00,,,0.00,meteohub,2013-04-02 10:15:00,
2013-04-02 06:20:00,24.1,16.3,29.99,West,273,13.0,18.0,72,0.00,,,0.00,meteohub,2013-04-02 10:20:00,
2013-04-02 06:25:00,24.1,16.3,29.99,West,265,10.0,20.0,72,0.00,,,0.00,meteohub,2013-04-02 10:25:00,
2013-04-02 06:30:00,24.1,16.7,30.00,West,273,12.0,20.0,73,0.00,,,0.00,meteohub,2013-04-02 10:30:00,
2013-04-02 06:35:00,24.3,16.9,30.00,WSW,257,6.0,20.0,73,0.00,,,0.00,meteohub,2013-04-02 10:35:00,
2013-04-02 06:40:00,24.1,16.7,30.00,SW,233,2.0,18.0,73,0.00,,,0.00,meteohub,2013-04-02 10:40:00,
2013-04-02 06:45:00,24.1,16.7,30.00,WSW,247,3.0,18.0,73,0.00,,,0.00,meteohub,2013-04-02 10:45:00,
2013-04-02 06:50:00,24.1,17.1,30.00,West,267,4.0,13.0,74,0.00,,,0.00,meteohub,2013-04-02 10:50:00,
2013-04-02 06:55:00,23.9,16.9,30.01,West,267,7.0,13.0,74,0.00,,,0.00,meteohub,2013-04-02 10:55:00,
2013-04-02 07:00:00,23.9,16.9,30.01,West,271,4.0,14.0,74,0.00,,,0.00,meteohub,2013-04-02 11:00:00,
2013-04-02 07:05:00,23.9,17.1,30.01,West,272,9.0,14.0,75,0.00,,,0.00,meteohub,2013-04-02 11:05:00,
2013-04-02 07:10:00,24.1,17.2,30.01,WNW,294,7.0,16.0,75,0.00,,,0.00,meteohub,2013-04-02 11:10:00,
2013-04-02 07:15:00,23.9,17.1,30.01,West,266,4.0,16.0,75,0.00,,,0.00,meteohub,2013-04-02 11:15:00,
2013-04-02 07:20:00,23.9,17.1,30.01,SW,225,6.0,16.0,75,0.00,,,0.00,meteohub,2013-04-02 11:20:00,
2013-04-02 07:25:00,23.9,17.1,30.01,WSW,256,8.0,15.0,75,0.00,,,0.00,meteohub,2013-04-02 11:25:00,
2013-04-02 07:30:00,23.9,17.1,30.01,West,278,9.0,17.0,75,0.00,,,0.00,meteohub,2013-04-02 11:30:00,
2013-04-02 07:36:00,23.9,17.1,30.01,West,278,8.0,17.0,75,0.00,,,0.00,meteohub,2013-04-02 11:36:00,
2013-04-02 07:41:00,24.1,17.6,30.01,SW,230,8.0,17.0,76,0.00,,,0.00,meteohub,2013-04-02 11:41:00,
2013-04-02 07:46:00,24.1,17.6,30.02,WSW,257,5.0,17.0,76,0.00,,,0.00,meteohub,2013-04-02 11:46:00,
2013-04-02 07:51:00,24.1,17.6,30.02,West,266,10.0,17.0,76,0.00,,,0.00,meteohub,2013-04-02 11:51:00,
2013-04-02 07:56:00,24.3,17.8,30.02,SW,215,9.0,18.0,76,0.00,,,0.00,meteohub,2013-04-02 11:56:00,
2013-04-02 08:01:00,24.3,17.4,30.03,West,262,14.0,18.0,75,0.00,,,0.00,meteohub,2013-04-02 12:01:00,
2013-04-02 08:07:00,24.3,17.4,30.03,WSW,257,6.0,18.0,75,0.00,,,0.00,meteohub,2013-04-02 12:07:00,
2013-04-02 08:12:00,24.6,17.8,30.03,SW,236,6.0,20.0,75,0.00,,,0.00,meteohub,2013-04-02 12:12:00,
2013-04-02 08:17:00,25.0,17.6,30.03,WNW,284,7.0,20.0,73,0.00,,,0.00,meteohub,2013-04-02 12:17:00,
2013-04-02 08:22:00,25.2,17.4,30.03,NW,310,12.0,20.0,72,0.00,,,0.00,meteohub,2013-04-02 12:22:00,
2013-04-02 08:27:00,25.2,16.7,30.03,WNW,296,11.0,20.0,70,0.00,,,0.00,meteohub,2013-04-02 12:27:00,
2013-04-02 08:32:00,25.3,16.5,30.03,WNW,291,12.0,20.0,69,0.00,,,0.00,meteohub,2013-04-02 12:32:00,
2013-04-02 08:37:00,25.5,16.5,30.03,WNW,286,12.0,23.0,68,0.00,,,0.00,meteohub,2013-04-02 12:37:00,
2013-04-02 08:42:00,25.9,16.5,30.04,West,278,19.0,23.0,67,0.00,,,0.00,meteohub,2013-04-02 12:42:00,
2013-04-02 08:47:00,26.1,16.3,30.04,West,271,15.0,23.0,66,0.00,,,0.00,meteohub,2013-04-02 12:47:00,
2013-04-02 08:52:00,26.4,16.3,30.04,West,263,14.0,22.0,65,0.00,,,0.00,meteohub,2013-04-02 12:52:00,
2013-04-02 08:57:00,26.4,16.0,30.04,West,266,18.0,28.0,64,0.00,,,0.00,meteohub,2013-04-02 12:57:00,
2013-04-02 09:02:00,26.6,16.0,30.04,West,267,11.0,28.0,64,0.00,,,0.00,meteohub,2013-04-02 13:02:00,
2013-04-02 09:07:00,27.0,16.3,30.04,West,269,15.0,28.0,64,0.00,,,0.00,meteohub,2013-04-02 13:07:00,
2013-04-02 09:12:00,27.0,15.6,30.04,West,271,14.0,26.0,62,0.00,,,0.00,meteohub,2013-04-02 13:12:00,
2013-04-02 09:17:00,27.0,15.6,30.04,West,269,8.0,26.0,62,0.00,,,0.00,meteohub,2013-04-02 13:17:00,
2013-04-02 09:22:00,27.1,15.8,30.04,West,268,7.0,26.0,62,0.00,,,0.00,meteohub,2013-04-02 13:22:00,
2013-04-02 09:27:00,27.5,15.4,30.04,WNW,289,9.0,26.0,60,0.00,,,0.00,meteohub,2013-04-02 13:27:00,
2013-04-02 09:33:00,27.1,15.1,30.04,West,269,20.0,30.0,60,0.00,,,0.00,meteohub,2013-04-02 13:33:00,
2013-04-02 09:38:00,27.3,15.3,30.04,WNW,286,18.0,30.0,60,0.00,,,0.00,meteohub,2013-04-02 13:38:00,
2013-04-02 09:43:00,27.1,15.1,30.04,WNW,290,20.0,30.0,60,0.00,,,0.00,meteohub,2013-04-02 13:43:00,
2013-04-02 09:48:00,27.7,15.6,30.04,West,278,12.0,30.0,60,0.00,,,0.00,meteohub,2013-04-02 13:48:00,
2013-04-02 09:53:00,27.9,15.4,30.04,West,278,21.0,24.0,59,0.00,,,0.00,meteohub,2013-04-02 13:53:00,
2013-04-02 09:58:00,27.9,15.8,30.04,West,265,18.0,31.0,60,0.00,,,0.00,meteohub,2013-04-02 13:58:00,
2013-04-02 10:03:00,28.2,16.2,30.04,West,270,15.0,31.0,60,0.00,,,0.00,meteohub,2013-04-02 14:03:00,
2013-04-02 10:08:00,28.4,16.0,30.04,WNW,299,19.0,31.0,59,0.00,,,0.00,meteohub,2013-04-02 14:08:00,
2013-04-02 10:13:00,28.2,15.8,30.04,West,274,13.0,24.0,59,0.00,,,0.00,meteohub,2013-04-02 14:13:00,
2013-04-02 10:18:00,28.6,16.2,30.04,WNW,286,9.0,22.0,59,0.00,,,0.00,meteohub,2013-04-02 14:18:00,
2013-04-02 10:23:00,28.8,15.4,30.04,SW,229,14.0,21.0,57,0.00,,,0.00,meteohub,2013-04-02 14:23:00,
2013-04-02 10:28:00,29.1,16.2,30.04,WSW,246,3.0,24.0,58,0.00,,,0.00,meteohub,2013-04-02 14:28:00,
2013-04-02 10:33:00,28.8,15.4,30.04,WNW,293,11.0,24.0,57,0.00,,,0.00,meteohub,2013-04-02 14:33:00,
2013-04-02 10:38:00,28.8,15.8,30.04,West,278,9.0,27.0,58,0.00,,,0.00,meteohub,2013-04-02 14:38:00,
2013-04-02 10:43:00,28.9,15.6,30.04,NW,312,15.0,27.0,57,0.00,,,0.00,meteohub,2013-04-02 14:43:00,
2013-04-02 10:48:00,28.8,15.4,30.04,West,277,7.0,27.0,57,0.00,,,0.00,meteohub,2013-04-02 14:48:00,
2013-04-02 10:53:00,28.6,15.6,30.05,WNW,290,23.0,24.0,58,0.00,,,0.00,meteohub,2013-04-02 14:53:00,
2013-04-02 10:58:00,28.2,15.3,30.05,West,279,13.0,25.0,58,0.00,,,0.00,meteohub,2013-04-02 14:58:00,
2013-04-02 11:03:00,28.6,15.6,30.05,West,267,8.0,25.0,58,0.00,,,0.00,meteohub,2013-04-02 15:03:00,
2013-04-02 11:08:00,28.8,15.4,30.05,WNW,296,9.0,25.0,57,0.00,,,0.00,meteohub,2013-04-02 15:08:00,
2013-04-02 11:13:00,28.8,15.8,30.04,West,269,8.0,25.0,58,0.00,,,0.00,meteohub,2013-04-02 15:13:00,
2013-04-02 11:18:00,28.8,15.8,30.05,WNW,294,7.0,25.0,58,0.00,,,0.00,meteohub,2013-04-02 15:18:00,
2013-04-02 11:24:00,28.8,15.8,30.05,WSW,248,10.0,21.0,58,0.00,,,0.00,meteohub,2013-04-02 15:24:00,
2013-04-02 11:29:00,28.8,16.2,30.06,West,274,18.0,29.0,59,0.00,,,0.00,meteohub,2013-04-02 15:29:00,
2013-04-02 11:34:00,28.9,15.6,30.05,West,275,12.0,29.0,57,0.00,,,0.00,meteohub,2013-04-02 15:34:00,
2013-04-02 11:39:00,29.1,15.8,30.05,WSW,245,14.0,29.0,57,0.00,,,0.00,meteohub,2013-04-02 15:39:00,
2013-04-02 11:44:00,29.3,15.6,30.05,West,274,20.0,27.0,56,0.00,,,0.00,meteohub,2013-04-02 15:44:00,
2013-04-02 11:49:00,29.7,16.7,30.04,West,264,18.0,27.0,58,0.00,,,0.00,meteohub,2013-04-02 15:49:00,
2013-04-02 11:55:00,29.5,16.9,30.05,WNW,284,11.0,27.0,59,0.00,,,0.00,meteohub,2013-04-02 15:55:00,
2013-04-02 12:00:00,29.8,17.6,30.05,West,281,9.0,27.0,60,0.00,,,0.00,meteohub,2013-04-02 16:00:00,
2013-04-02 12:05:00,30.4,17.4,30.04,WSW,257,14.0,25.0,58,0.00,,,0.00,meteohub,2013-04-02 16:05:00,
2013-04-02 12:10:00,30.0,16.7,30.05,WNW,293,16.0,29.0,57,0.00,,,0.00,meteohub,2013-04-02 16:10:00,
2013-04-02 12:15:00,29.7,17.8,30.05,WNW,282,20.0,29.0,61,0.00,,,0.00,meteohub,2013-04-02 16:15:00,
2013-04-02 12:20:00,29.7,18.3,30.05,West,279,19.0,30.0,62,0.00,,,0.00,meteohub,2013-04-02 16:20:00,
2013-04-02 12:25:00,30.6,18.0,30.05,WNW,287,8.0,30.0,59,0.00,,,0.00,meteohub,2013-04-02 16:25:00,
2013-04-02 12:30:00,30.9,18.0,30.05,WNW,296,21.0,30.0,58,0.00,,,0.00,meteohub,2013-04-02 16:30:00,
2013-04-02 12:36:00,30.7,16.9,30.04,SW,234,11.0,29.0,56,0.00,,,0.00,meteohub,2013-04-02 16:36:00,
2013-04-02 12:41:00,30.4,16.5,30.04,West,278,12.0,31.0,56,0.00,,,0.00,meteohub,2013-04-02 16:41:00,
2013-04-02 12:47:00,30.7,16.5,30.04,West,281,16.0,31.0,55,0.00,,,0.00,meteohub,2013-04-02 16:47:00,
2013-04-02 12:52:00,31.3,17.4,30.04,West,277,13.0,31.0,56,0.00,,,0.00,meteohub,2013-04-02 16:52:00,
2013-04-02 12:57:00,30.9,18.0,30.04,WNW,292,12.0,29.0,58,0.00,,,0.00,meteohub,2013-04-02 16:57:00,
2013-04-02 13:02:00,30.0,18.5,30.04,WNW,286,15.0,29.0,62,0.00,,,0.00,meteohub,2013-04-02 17:02:00,
2013-04-02 13:07:00,30.4,18.1,30.04,WNW,286,8.0,28.0,60,0.00,,,0.00,meteohub,2013-04-02 17:07:00,
2013-04-02 13:12:00,30.9,18.7,30.04,WSW,256,6.0,26.0,60,0.00,,,0.00,meteohub,2013-04-02 17:12:00,
2013-04-02 13:17:00,31.5,19.2,30.04,SW,229,10.0,25.0,60,0.00,,,0.00,meteohub,2013-04-02 17:17:00,
2013-04-02 13:22:00,31.3,17.8,30.04,WNW,283,18.0,25.0,57,0.00,,,0.00,meteohub,2013-04-02 17:22:00,
2013-04-02 13:27:00,31.5,18.0,30.04,NW,319,13.0,29.0,57,0.00,,,0.00,meteohub,2013-04-02 17:27:00,
2013-04-02 13:33:00,32.0,17.6,30.04,WNW,292,9.0,29.0,55,0.00,,,0.00,meteohub,2013-04-02 17:33:00,
2013-04-02 13:38:00,31.5,18.9,30.04,West,268,19.0,31.0,59,0.00,,,0.00,meteohub,2013-04-02 17:38:00,
2013-04-02 13:43:00,30.9,18.3,30.03,WNW,293,9.0,31.0,59,0.00,,,0.00,meteohub,2013-04-02 17:43:00,
2013-04-02 13:51:00,31.8,18.3,30.03,SW,229,18.0,31.0,57,0.00,,,0.00,meteohub,2013-04-02 17:51:00,
2013-04-02 13:56:00,31.3,19.0,30.04,WNW,288,31.0,31.0,60,0.00,,,0.00,meteohub,2013-04-02 17:56:00,
2013-04-02 14:02:00,30.7,19.2,30.04,NW,309,8.0,31.0,62,0.00,,,0.00,meteohub,2013-04-02 18:02:00,
2013-04-02 14:07:00,31.6,19.0,30.03,West,275,15.0,31.0,59,0.00,,,0.00,meteohub,2013-04-02 18:07:00,
2013-04-02 14:12:00,31.6,19.4,30.04,West,281,23.0,31.0,60,0.00,,,0.00,meteohub,2013-04-02 18:12:00,
2013-04-02 14:17:00,30.7,20.7,30.04,WNW,289,8.0,27.0,66,0.00,,,0.00,meteohub,2013-04-02 18:17:00,
2013-04-02 14:22:00,31.8,20.3,30.04,West,281,9.0,29.0,62,0.00,,,0.00,meteohub,2013-04-02 18:22:00,
2013-04-02 14:27:00,32.2,20.3,30.04,WSW,238,10.0,29.0,61,0.00,,,0.00,meteohub,2013-04-02 18:27:00,
2013-04-02 14:33:00,32.2,19.4,30.04,West,281,12.0,29.0,59,0.00,,,0.00,meteohub,2013-04-02 18:33:00,
2013-04-02 14:38:00,32.2,19.9,30.04,West,268,8.0,25.0,60,0.00,,,0.00,meteohub,2013-04-02 18:38:00,
2013-04-02 14:43:00,32.4,20.5,30.04,WSW,252,5.0,26.0,61,0.00,,,0.00,meteohub,2013-04-02 18:43:00,
2013-04-02 14:48:00,32.4,21.2,30.04,SW,220,18.0,27.0,63,0.00,,,0.00,meteohub,2013-04-02 18:48:00,
2013-04-02 14:53:00,32.7,20.3,30.04,WSW,245,7.0,27.0,60,0.00,,,0.00,meteohub,2013-04-02 18:53:00,
2013-04-02 14:58:00,33.1,20.3,30.04,SW,230,10.0,27.0,59,0.00,,,0.00,meteohub,2013-04-02 18:58:00,
2013-04-02 15:03:00,32.5,20.1,30.04,WSW,238,20.0,27.0,60,0.00,,,0.00,meteohub,2013-04-02 19:03:00,
2013-04-02 15:08:00,32.2,19.9,30.04,West,269,17.0,27.0,60,0.00,,,0.00,meteohub,2013-04-02 19:08:00,
2013-04-02 15:13:00,31.8,20.3,30.04,WSW,246,17.0,26.0,62,0.00,,,0.00,meteohub,2013-04-02 19:13:00,
2013-04-02 15:19:00,31.5,20.3,30.04,West,264,19.0,31.0,63,0.00,,,0.00,meteohub,2013-04-02 19:19:00,
2013-04-02 15:24:00,32.2,20.3,30.04,SW,225,11.0,31.0,61,0.00,,,0.00,meteohub,2013-04-02 19:24:00,
2013-04-02 15:29:00,32.2,20.7,30.04,West,272,21.0,31.0,62,0.00,,,0.00,meteohub,2013-04-02 19:29:00,
2013-04-02 15:34:00,32.5,19.4,30.04,West,262,10.0,27.0,58,0.00,,,0.00,meteohub,2013-04-02 19:34:00,
2013-04-02 15:39:00,31.8,20.3,30.04,SSW,207,13.0,29.0,62,0.00,,,0.00,meteohub,2013-04-02 19:39:00,
2013-04-02 15:44:00,31.5,20.7,30.04,SW,215,18.0,29.0,64,0.00,,,0.00,meteohub,2013-04-02 19:44:00,
2013-04-02 15:49:00,31.1,21.7,30.04,WSW,245,11.0,29.0,68,0.00,,,0.00,meteohub,2013-04-02 19:49:00,
2013-04-02 15:56:00,31.3,22.3,30.04,SW,220,16.0,29.0,69,0.00,,,0.00,meteohub,2013-04-02 19:56:00,
2013-04-02 16:01:00,31.5,21.7,30.04,West,263,18.0,30.0,67,0.00,,,0.00,meteohub,2013-04-02 20:01:00,
2013-04-02 16:07:00,31.6,21.9,30.04,WNW,283,14.0,30.0,67,0.00,,,0.00,meteohub,2013-04-02 20:07:00,
2013-04-02 16:12:00,31.8,20.3,30.04,West,271,28.0,34.0,62,0.00,,,0.00,meteohub,2013-04-02 20:12:00,
2013-04-02 16:17:00,31.8,19.9,30.04,West,263,12.0,34.0,61,0.00,,,0.00,meteohub,2013-04-02 20:17:00,
2013-04-02 16:22:00,32.5,19.4,30.04,West,275,7.0,34.0,58,0.00,,,0.00,meteohub,2013-04-02 20:22:00,
2013-04-02 16:27:00,32.5,21.0,30.04,WSW,238,15.0,34.0,62,0.00,,,0.00,meteohub,2013-04-02 20:27:00,
2013-04-02 16:32:00,32.5,21.4,30.04,West,275,24.0,25.0,63,0.00,,,0.00,meteohub,2013-04-02 20:32:00,
2013-04-02 16:39:00,32.4,20.8,30.04,West,263,10.0,29.0,62,0.00,,,0.00,meteohub,2013-04-02 20:39:00,
2013-04-02 16:44:00,32.5,22.5,30.04,WNW,290,9.0,29.0,66,0.00,,,0.00,meteohub,2013-04-02 20:44:00,
2013-04-02 16:49:00,33.3,20.8,30.04,WSW,246,11.0,29.0,60,0.00,,,0.00,meteohub,2013-04-02 20:49:00,
2013-04-02 16:54:00,33.3,18.5,30.04,West,277,21.0,27.0,54,0.00,,,0.00,meteohub,2013-04-02 20:54:00,
2013-04-02 16:59:00,33.4,19.0,30.05,WSW,252,18.0,28.0,55,0.00,,,0.00,meteohub,2013-04-02 20:59:00,
2013-04-02 17:04:00,33.1,20.7,30.05,WSW,247,15.0,31.0,60,0.00,,,0.00,meteohub,2013-04-02 21:04:00,
2013-04-02 17:09:00,32.7,21.2,30.05,WNW,282,24.0,32.0,62,0.00,,,0.00,meteohub,2013-04-02 21:09:00,
2013-04-02 17:14:00,32.9,21.7,30.05,WSW,253,17.0,32.0,63,0.00,,,0.00,meteohub,2013-04-02 21:14:00,
2013-04-02 17:19:00,32.9,20.1,30.05,West,280,8.0,32.0,59,0.00,,,0.00,meteohub,2013-04-02 21:19:00,
2013-04-02 17:24:00,33.3,20.1,30.05,West,277,12.0,31.0,58,0.00,,,0.00,meteohub,2013-04-02 21:24:00,
2013-04-02 17:29:00,33.4,19.8,30.06,WNW,286,13.0,31.0,57,0.00,,,0.00,meteohub,2013-04-02 21:29:00,
2013-04-02 17:34:00,33.3,18.5,30.06,West,271,19.0,30.0,54,0.00,,,0.00,meteohub,2013-04-02 21:34:00,
2013-04-02 17:39:00,32.9,19.8,30.06,WNW,282,18.0,31.0,58,0.00,,,0.00,meteohub,2013-04-02 21:39:00,
2013-04-02 17:44:00,32.7,19.9,30.06,WNW,292,11.0,31.0,59,0.00,,,0.00,meteohub,2013-04-02 21:44:00,
2013-04-02 17:49:00,32.7,19.6,30.06,West,265,8.0,31.0,58,0.00,,,0.00,meteohub,2013-04-02 21:49:00,
2013-04-02 17:55:00,33.3,19.8,30.06,WNW,298,18.0,29.0,57,0.00,,,0.00,meteohub,2013-04-02 21:55:00,
2013-04-02 18:00:00,33.1,18.7,30.07,WNW,284,14.0,24.0,55,0.00,,,0.00,meteohub,2013-04-02 22:00:00,
2013-04-02 18:05:00,32.5,19.8,30.07,West,278,19.0,32.0,59,0.00,,,0.00,meteohub,2013-04-02 22:05:00,
2013-04-02 18:10:00,31.8,20.3,30.07,SW,223,8.0,32.0,62,0.00,,,0.00,meteohub,2013-04-02 22:10:00,
2013-04-02 18:15:00,32.2,20.3,30.07,WNW,299,12.0,32.0,61,0.00,,,0.00,meteohub,2013-04-02 22:15:00,
2013-04-02 18:20:00,32.5,19.8,30.07,West,280,14.0,31.0,59,0.00,,,0.00,meteohub,2013-04-02 22:20:00,
2013-04-02 18:25:00,32.7,19.2,30.08,WNW,293,15.0,26.0,57,0.00,,,0.00,meteohub,2013-04-02 22:25:00,
2013-04-02 18:30:00,33.1,17.8,30.07,West,261,10.0,28.0,53,0.00,,,0.00,meteohub,2013-04-02 22:30:00,
2013-04-02 18:35:00,33.3,17.6,30.08,WNW,290,20.0,30.0,52,0.00,,,0.00,meteohub,2013-04-02 22:35:00,
2013-04-02 18:40:00,33.1,17.4,30.08,WNW,291,12.0,30.0,52,0.00,,,0.00,meteohub,2013-04-02 22:40:00,
2013-04-02 18:45:00,32.5,16.9,30.08,WNW,292,11.0,28.0,52,0.00,,,0.00,meteohub,2013-04-02 22:45:00,
2013-04-02 18:50:00,32.4,17.1,30.08,WNW,290,13.0,28.0,53,0.00,,,0.00,meteohub,2013-04-02 22:50:00,
2013-04-02 18:55:00,32.4,17.1,30.08,NW,311,12.0,28.0,53,0.00,,,0.00,meteohub,2013-04-02 22:55:00,
2013-04-02 19:02:00,32.7,16.2,30.08,WNW,283,13.0,28.0,50,0.00,,,0.00,meteohub,2013-04-02 23:02:00,
2013-04-02 19:07:00,32.9,15.8,30.08,West,259,14.0,26.0,49,0.00,,,0.00,meteohub,2013-04-02 23:07:00,
2013-04-02 19:12:00,32.7,15.3,30.09,WNW,290,22.0,28.0,48,0.00,,,0.00,meteohub,2013-04-02 23:12:00,
2013-04-02 19:17:00,32.5,15.1,30.09,WNW,289,12.0,28.0,48,0.00,,,0.00,meteohub,2013-04-02 23:17:00,
2013-04-02 19:23:00,32.5,16.3,30.09,WNW,291,12.0,28.0,51,0.00,,,0.00,meteohub,2013-04-02 23:23:00,
2013-04-02 19:28:00,32.2,17.4,30.09,NW,316,9.0,25.0,54,0.00,,,0.00,meteohub,2013-04-02 23:28:00,
2013-04-02 19:33:00,31.8,17.4,30.09,West,275,11.0,20.0,55,0.00,,,0.00,meteohub,2013-04-02 23:33:00,
2013-04-02 19:38:00,31.6,17.8,30.09,West,277,9.0,20.0,56,0.00,,,0.00,meteohub,2013-04-02 23:38:00,
2013-04-02 19:43:00,31.6,17.8,30.09,West,268,10.0,19.0,56,0.00,,,0.00,meteohub,2013-04-02 23:43:00,
2013-04-02 19:49:00,31.5,17.6,30.09,West,275,12.0,19.0,56,0.00,,,0.00,meteohub,2013-04-02 23:49:00,
2013-04-02 19:54:00,31.5,17.2,30.10,SW,236,5.0,25.0,55,0.00,,,0.00,meteohub,2013-04-02 23:54:00,
2013-04-02 19:59:00,31.1,17.2,30.10,WNW,289,6.0,25.0,56,0.00,,,0.00,meteohub,2013-04-02 23:59:00,
2013-04-02 20:04:00,30.9,16.7,30.10,WNW,288,9.0,25.0,55,0.00,,,0.00,meteohub,2013-04-03 00:04:00,
2013-04-02 20:09:00,31.1,17.2,30.10,West,268,6.0,20.0,56,0.00,,,0.00,meteohub,2013-04-03 00:09:00,
2013-04-02 20:14:00,30.9,17.1,30.10,WNW,287,8.0,19.0,56,0.00,,,0.00,meteohub,2013-04-03 00:14:00,
2013-04-02 20:19:00,30.9,19.0,30.11,West,277,12.0,17.0,61,0.00,,,0.00,meteohub,2013-04-03 00:19:00,
2013-04-02 20:24:00,30.9,17.4,30.11,West,261,10.0,16.0,57,0.00,,,0.00,meteohub,2013-04-03 00:24:00,
2013-04-02 20:29:00,30.9,17.4,30.11,WNW,285,5.0,16.0,57,0.00,,,0.00,meteohub,2013-04-03 00:29:00,
2013-04-02 20:35:00,30.7,17.8,30.11,West,271,9.0,16.0,58,0.00,,,0.00,meteohub,2013-04-03 00:35:00,
2013-04-02 20:40:00,30.7,17.8,30.11,West,272,12.0,15.0,58,0.00,,,0.00,meteohub,2013-04-03 00:40:00,
2013-04-02 20:46:00,30.7,17.8,30.11,West,281,11.0,15.0,58,0.00,,,0.00,meteohub,2013-04-03 00:46:00,
2013-04-02 20:52:00,30.7,18.1,30.12,West,277,5.0,15.0,59,0.00,,,0.00,meteohub,2013-04-03 00:52:00,
2013-04-02 20:57:00,30.6,18.0,30.12,West,264,4.0,15.0,59,0.00,,,0.00,meteohub,2013-04-03 00:57:00,
2013-04-02 21:02:00,30.6,18.0,30.12,WNW,284,18.0,18.0,59,0.00,,,0.00,meteohub,2013-04-03 01:02:00,
2013-04-02 21:07:00,30.6,18.0,30.12,WNW,286,6.0,18.0,59,0.00,,,0.00,meteohub,2013-04-03 01:07:00,
2013-04-02 21:12:00,30.6,18.0,30.12,West,276,4.0,18.0,59,0.00,,,0.00,meteohub,2013-04-03 01:12:00,
2013-04-02 21:17:00,30.6,18.0,30.12,WNW,296,5.0,18.0,59,0.00,,,0.00,meteohub,2013-04-03 01:17:00,
2013-04-02 21:22:00,30.4,17.8,30.12,West,279,8.0,15.0,59,0.00,,,0.00,meteohub,2013-04-03 01:22:00,
2013-04-02 21:27:00,30.6,18.0,30.12,WNW,290,11.0,17.0,59,0.00,,,0.00,meteohub,2013-04-03 01:27:00,
2013-04-02 21:32:00,30.4,17.8,30.12,WNW,298,8.0,19.0,59,0.00,,,0.00,meteohub,2013-04-03 01:32:00,
2013-04-02 21:40:00,30.4,17.8,30.12,WNW,294,9.0,19.0,59,0.00,,,0.00,meteohub,2013-04-03 01:40:00,
2013-04-02 21:45:00,30.4,17.8,30.12,West,269,11.0,19.0,59,0.00,,,0.00,meteohub,2013-04-03 01:45:00,
2013-04-02 21:50:00,30.4,17.8,30.12,WSW,248,17.0,18.0,59,0.00,,,0.00,meteohub,2013-04-03 01:50:00,
2013-04-02 21:55:00,30.4,17.8,30.12,West,281,12.0,20.0,59,0.00,,,0.00,meteohub,2013-04-03 01:55:00,
2013-04-02 22:00:00,30.4,17.8,30.12,WNW,290,11.0,20.0,59,0.00,,,0.00,meteohub,2013-04-03 02:00:00,
2013-04-02 22:05:00,30.2,18.0,30.12,WNW,291,6.0,20.0,60,0.00,,,0.00,meteohub,2013-04-03 02:05:00,
2013-04-02 22:10:00,30.2,18.0,30.12,WNW,290,8.0,18.0,60,0.00,,,0.00,meteohub,2013-04-03 02:10:00,
2013-04-02 22:15:00,30.2,18.0,30.12,NW,312,11.0,18.0,60,0.00,,,0.00,meteohub,2013-04-03 02:15:00,
2013-04-02 22:20:00,30.0,18.1,30.12,West,265,4.0,18.0,61,0.00,,,0.00,meteohub,2013-04-03 02:20:00,
2013-04-02 22:25:00,29.8,18.5,30.12,West,281,5.0,15.0,62,0.00,,,0.00,meteohub,2013-04-03 02:25:00,
2013-04-02 22:30:00,29.7,18.3,30.12,West,276,5.0,13.0,62,0.00,,,0.00,meteohub,2013-04-03 02:30:00,
2013-04-02 22:36:00,29.7,18.7,30.12,West,281,6.0,13.0,63,0.00,,,0.00,meteohub,2013-04-03 02:36:00,
2013-04-02 22:41:00,29.7,18.7,30.12,WNW,300,8.0,14.0,63,0.00,,,0.00,meteohub,2013-04-03 02:41:00,
2013-04-02 22:46:00,29.5,18.5,30.13,West,279,9.0,14.0,63,0.00,,,0.00,meteohub,2013-04-03 02:46:00,
2013-04-02 22:51:00,29.5,18.9,30.13,WNW,286,6.0,14.0,64,0.00,,,0.00,meteohub,2013-04-03 02:51:00,
2013-04-02 22:57:00,29.5,18.9,30.13,WNW,296,6.0,13.0,64,0.00,,,0.00,meteohub,2013-04-03 02:57:00,
2013-04-02 23:02:00,29.5,19.2,30.13,West,273,9.0,13.0,65,0.00,,,0.00,meteohub,2013-04-03 03:02:00,
2013-04-02 23:07:00,29.3,19.0,30.13,WNW,283,5.0,13.0,65,0.00,,,0.00,meteohub,2013-04-03 03:07:00,
2013-04-02 23:12:00,29.1,18.9,30.13,West,280,6.0,12.0,65,0.00,,,0.00,meteohub,2013-04-03 03:12:00,
2013-04-02 23:18:00,28.9,18.7,30.13,West,275,6.0,12.0,65,0.00,,,0.00,meteohub,2013-04-03 03:18:00,
2013-04-02 23:23:00,28.8,18.9,30.13,WNW,288,6.0,11.0,66,0.00,,,0.00,meteohub,2013-04-03 03:23:00,
2013-04-02 23:29:00,28.6,18.7,30.13,West,273,5.0,11.0,66,0.00,,,0.00,meteohub,2013-04-03 03:29:00,
2013-04-02 23:35:00,28.4,18.5,30.13,WNW,287,2.0,9.0,66,0.00,,,0.00,meteohub,2013-04-03 03:35:00,
2013-04-02 23:40:00,28.2,18.7,30.13,West,271,2.0,8.0,67,0.00,,,0.00,meteohub,2013-04-03 03:40:00,
2013-04-02 23:45:00,28.2,18.7,30.13,WNW,283,4.0,11.0,67,0.00,,,0.00,meteohub,2013-04-03 03:45:00,
2013-04-02 23:50:00,28.0,18.5,30.13,West,279,5.0,11.0,67,0.00,,,0.00,meteohub,2013-04-03 03:50:00,
2013-04-02 23:55:00,28.0,18.5,30.13,West,279,4.0,11.0,67,0.00,,,0.00,meteohub,2013-04-03 03:55:00,